Weather History for KLVS - January, 2014

Change the Weather History Date:

Monday, January 6, 2014

  Actual Average Record
Temperature  
Mean Temperature 22 °F -  
Max Temperature 37 °F 42 °F 66 °F (2006)
Min Temperature 6 °F 16 °F -21 °F (1971)
Degree Days  
Heating Degree Days 44    
Moisture  
Dew Point 6 °F    
Average Humidity 74    
Maximum Humidity 92    
Minimum Humidity 26    
Precipitation  
Precipitation 0.00 in - - ()
Sea Level Pressure  
Sea Level Pressure 30.29 in    
Wind  
Wind Speed 12 mph (South)    
Max Wind Speed 20 mph    
Max Gust Speed -    
Visibility 6 miles    
Events Snow    
Averages and records for this station are not official NWS values.
T = Trace of Precipitation, MM = Missing Value Source: NWS Daily Summary

Daily Weather History Graph

Daily Weather History Graph

Search for Another Location

Airport or City:

Trip Planner

Search our weather history database for the weather conditions in past years. The results will help you decide how hot, cold, wet, or windy it might be!

Date:

Astronomy

Jan. 06, 2014 Rise Set
Actual Time 7:10 AM MST 5:02 PM MST
Civil Twilight 6:42 AM MST 5:30 PM MST
Nautical Twilight 6:10 AM MST 6:02 PM MST
Astronomical Twilight 5:40 AM MST 6:33 PM MST
Moon 10:40 AM MST (1/6) 11:24 PM MST (1/6)
Length of Visible Light 10h 47m
Length of Day
9h 51m
Waxing Crescent, 35% of the Moon is Illuminated
Jan 6
Waxing Crescent
Jan 7
First Quarter
Jan 15
Full
Jan 23
Last Quarter
Jan 30
New

Hourly Weather History & Observations

Time (MST) Temp. Windchill Dew Point Humidity Pressure Visibility Wind Dir Wind Speed Gust Speed Precip Events Conditions
12:53 AM 9.0 °F -7.3 °F 7.0 °F 92% 30.32 in 6.0 mi South 13.8 mph - 0.00 in   Overcast
1:53 AM 8.1 °F -9.0 °F 5.0 °F 87% 30.32 in 4.0 mi SW 15.0 mph - 0.00 in Snow Light Snow
2:21 AM 7.0 °F -9.8 °F 5.0 °F 92% 30.22 in 1.8 mi South 13.8 mph - 0.00 in Snow Light Snow
2:53 AM 7.0 °F -9.1 °F 3.9 °F 87% 30.32 in 2.0 mi South 12.7 mph - 0.00 in Snow Light Snow
3:53 AM 7.0 °F -9.1 °F 3.9 °F 87% 30.30 in 2.5 mi South 12.7 mph - 0.00 in Snow Light Snow
4:10 AM 7.0 °F -9.8 °F 5.0 °F 92% 30.20 in 3.0 mi SSW 13.8 mph - 0.00 in Snow Light Snow
4:29 AM 7.0 °F -9.1 °F 5.0 °F 92% 30.20 in 2.5 mi South 12.7 mph - 0.00 in Snow Light Snow
4:38 AM 7.0 °F -11.0 °F 5.0 °F 92% 30.18 in 3.0 mi South 16.1 mph - 0.00 in Snow Light Snow
4:53 AM 7.0 °F -7.5 °F 5.0 °F 92% 30.31 in 3.0 mi South 10.4 mph - 0.00 in Snow Light Snow
5:20 AM 8.1 °F -7.0 °F 5.0 °F 87% 30.18 in 2.5 mi South 11.5 mph - 0.00 in Snow Light Snow
5:29 AM 7.0 °F -11.0 °F 3.9 °F 87% 30.18 in 3.0 mi South 16.1 mph - 0.00 in Snow Light Snow
5:53 AM 7.0 °F -9.1 °F 3.9 °F 87% 30.34 in 4.0 mi South 12.7 mph - 0.00 in Snow Light Snow
6:53 AM 6.1 °F -12.2 °F 3.0 °F 87% 30.36 in 6.0 mi SSW 16.1 mph - 0.00 in Snow Light Snow
7:53 AM 7.0 °F -8.3 °F 3.0 °F 84% 30.41 in 5.0 mi SSW 11.5 mph - 0.00 in Snow Light Snow
8:05 AM 6.1 °F -9.5 °F 3.9 °F 91% 30.22 in 7.0 mi SSW 11.5 mph - 0.00 in   Overcast
8:19 AM 7.0 °F -8.3 °F 3.9 °F 87% 30.23 in 4.0 mi South 11.5 mph - 0.00 in Snow Light Snow
8:40 AM 8.1 °F -5.3 °F 5.0 °F 87% 30.23 in 2.0 mi South 9.2 mph - 0.00 in Snow Light Snow
8:50 AM 8.6 °F -3.7 °F 5.0 °F 85% 30.24 in 1.8 mi SSW 8.1 mph - 0.00 in Snow Light Snow
8:53 AM 8.1 °F -6.2 °F 5.0 °F 87% 30.44 in 1.8 mi South 10.4 mph - 0.00 in Snow Light Snow
9:00 AM 8.1 °F -4.3 °F 5.0 °F 87% 30.25 in 2.0 mi South 8.1 mph - 0.00 in Snow Light Snow
9:14 AM 9.0 °F -3.2 °F 6.1 °F 88% 30.25 in 4.0 mi SSW 8.1 mph - 0.00 in   Mostly Cloudy
9:25 AM 10.0 °F -1.9 °F 7.0 °F 87% 30.26 in 2.0 mi South 8.1 mph - 0.00 in Snow Light Snow
9:33 AM 10.0 °F -1.9 °F 7.0 °F 87% 30.26 in 1.0 mi South 8.1 mph - 0.00 in   Mist
9:38 AM 10.9 °F 0.2 °F 7.0 °F 84% 30.26 in 3.0 mi SSW 6.9 mph - 0.00 in   Mostly Cloudy
9:53 AM 12.0 °F 2.7 °F 9.0 °F 88% 30.45 in 6.0 mi SSW 5.8 mph - 0.00 in   Mostly Cloudy
10:10 AM 12.9 °F 6.9 °F 10.0 °F 88% 30.27 in 7.0 mi South 3.5 mph - N/A   Scattered Clouds
10:53 AM 17.1 °F 7.6 °F 12.9 °F 84% 30.42 in 10.0 mi South 6.9 mph - N/A   Clear
11:53 AM 26.1 °F 15.6 °F 14.0 °F 60% 30.32 in 10.0 mi SSW 11.5 mph - N/A   Clear
12:53 PM 33.1 °F 22.2 °F 7.0 °F 34% 30.27 in 10.0 mi South 17.3 mph - N/A   Clear
1:53 PM 36.0 °F 25.3 °F 3.9 °F 26% 30.26 in 10.0 mi South 19.6 mph - N/A   Clear
2:53 PM 37.0 °F 27.0 °F 5.0 °F 26% 30.26 in 10.0 mi South 18.4 mph - N/A   Clear
3:53 PM 34.0 °F 23.0 °F 6.1 °F 31% 30.27 in 10.0 mi South 18.4 mph - N/A   Clear
4:53 PM 28.0 °F 15.7 °F 7.0 °F 41% 30.29 in 10.0 mi South 17.3 mph - N/A   Clear
5:53 PM 21.9 °F 8.2 °F 6.1 °F 51% 30.34 in 10.0 mi South 16.1 mph - N/A   Clear
6:53 PM 19.9 °F 6.7 °F 6.1 °F 55% 30.38 in 10.0 mi South 13.8 mph - N/A   Clear
7:53 PM 18.0 °F 5.4 °F 6.1 °F 60% 30.38 in 10.0 mi South 11.5 mph - N/A   Clear
8:53 PM 18.0 °F 7.7 °F 5.0 °F 57% 30.38 in 10.0 mi South 8.1 mph - N/A   Clear
9:53 PM 21.9 °F 15.7 °F 3.9 °F 46% 30.32 in 10.0 mi NNW 4.6 mph - N/A   Clear
10:53 PM 19.9 °F 12.1 °F 5.0 °F 52% 30.29 in 10.0 mi NE 5.8 mph - N/A   Clear
11:53 PM 27.0 °F 23.0 °F 5.0 °F 39% 30.22 in 10.0 mi NNW 3.5 mph - N/A   Clear